Date,TemperatureHighF,TemperatureAvgF,TemperatureLowF,DewpointHighF,DewpointAvgF,DewpointLowF,HumidityHigh,HumidityAvg,HumidityLow,PressureMaxIn,PressureMinIn,WindSpeedMaxMPH,WindSpeedAvgMPH,GustSpeedMaxMPH,PrecipitationSumIn
2013-1-1,35.6,25.3,8.2,29.6,18.5,4.1,86,75,64,30.07,29.85,14,2,14,0.01
2013-1-2,28.5,21.8,15.2,22.9,15.4,10.4,90,77,62,30.26,30.01,12,3,16,0.00
2013-1-3,30.9,24.1,14.2,25.9,18.8,10.3,94,80,68,30.25,30.02,14,2,14,0.00
2013-1-4,37.3,32.9,27.6,25.8,23.3,17.7,83,68,53,30.03,29.91,9,2,20,0.07
2013-1-5,37.2,33.7,29.1,27.2,24.9,22.0,76,70,59,30.31,30.03,15,2,15,0.05
2013-1-6,40.4,36.2,32.3,33.2,29.1,24.1,89,75,66,30.13,29.91,13,2,13,0.07
2013-1-7,37.2,30.8,26.1,32.8,25.9,20.8,89,82,74,30.42,30.06,11,2,11,0.01
2013-1-8,41.5,34.0,29.3,28.7,25.5,22.0,83,71,54,30.35,30.24,15,2,15,0.00
2013-1-9,50.4,39.5,30.7,37.5,30.0,25.6,89,70,47,30.34,30.00,23,4,23,0.00
2013-1-10,43.3,38.5,33.4,31.8,29.5,27.6,85,70,60,30.59,30.32,15,1,17,0.00
2013-1-11,42.7,39.6,33.6,39.0,33.7,28.8,88,80,69,30.49,29.99,23,6,23,0.10
2013-1-12,51.3,46.3,41.7,47.5,43.3,38.8,94,89,84,30.07,30.01,15,4,15,0.00
2013-1-13,58.7,51.0,44.8,52.9,47.6,42.7,94,88,79,30.05,29.81,20,4,20,0.00
2013-1-14,53.4,41.1,31.8,49.5,33.7,22.8,92,75,58,30.38,29.77,16,2,16,0.01
2013-1-15,36.1,31.8,28.8,26.5,24.0,22.3,83,73,60,30.41,30.21,7,0,7,0.00
2013-1-16,36.2,33.5,30.5,32.1,29.1,23.5,93,84,70,30.21,29.81,14,3,14,0.04
2013-1-17,36.8,29.0,21.4,31.0,22.5,16.0,88,77,67,30.20,29.89,18,2,18,0.00
2013-1-18,32.1,22.8,10.9,20.1,13.1,7.0,92,67,45,30.44,30.14,21,3,21,0.01
2013-1-19,51.9,43.1,32.1,32.1,25.5,17.4,60,50,39,30.14,29.66,19,4,21,0.02
2013-1-20,49.2,35.1,22.4,34.9,21.2,12.1,81,58,39,30.08,29.49,21,6,28,0.01
2013-1-21,25.9,21.3,14.6,20.5,13.1,7.4,89,71,54,30.08,29.87,14,1,14,0.00
2013-1-22,17.1,11.7,7.7,9.0,-0.0,-3.7,70,59,44,30.22,29.91,21,3,21,0.01
2013-1-23,14.3,8.2,2.9,7.7,1.0,-3.9,84,72,58,30.26,30.17,14,1,14,0.00
2013-1-24,17.6,11.1,4.5,9.4,4.5,-1.4,89,75,56,30.55,30.15,13,1,13,0.00
2013-1-25,18.6,14.2,8.9,13.5,9.0,5.2,89,80,68,30.51,30.10,9,1,13,0.00
2013-1-26,23.2,14.3,4.3,15.2,9.3,0.6,90,81,66,30.42,30.11,5,1,5,0.06
2013-1-27,24.9,20.9,15.1,19.6,16.6,11.5,89,83,77,30.58,30.42,10,1,10,0.05
2013-1-28,39.9,33.1,23.6,37.9,29.2,18.0,95,86,68,30.44,29.91,19,4,20,0.15
2013-1-29,50.1,42.2,35.2,48.2,40.8,34.2,100,95,91,30.08,29.84,15,2,15,0.32
2013-1-30,63.5,54.3,47.9,56.0,50.1,45.3,95,86,75,29.84,29.07,28,6,28,0.27
2013-1-31,54.1,34.9,22.4,52.9,27.0,16.1,97,73,55,29.73,29.00,20,6,27,0.34
2013-2-1,24.7,22.3,19.9,18.1,13.5,9.5,83,69,54,30.23,29.72,19,3,19,0.00
2013-2-2,23.3,20.0,16.5,17.1,11.8,6.7,83,70,58,30.23,30.01,20,4,20,0.00
2013-2-3,28.0,22.0,15.5,21.4,17.2,12.1,92,82,67,30.01,29.79,14,2,14,0.00
2013-2-4,24.2,21.7,19.9,17.0,13.2,9.4,83,70,56,29.98,29.87,15,2,15,0.00
2013-2-5,29.1,24.3,19.1,22.5,18.2,14.2,84,77,66,29.99,29.86,10,0,10,0.00
2013-2-6,30.9,26.5,18.2,26.8,18.8,12.0,92,73,56,30.41,29.90,16,2,16,0.01
2013-2-7,35.2,26.6,16.6,23.3,17.5,12.2,87,69,55,30.49,30.15,22,4,22,0.00
2013-2-8,37.0,33.4,23.3,32.2,28.9,20.5,95,84,60,30.16,29.78,24,5,24,0.06
2013-2-9,23.4,20.1,16.1,21.3,16.5,12.7,92,86,80,30.45,29.97,14,2,14,0.00
2013-2-10,37.7,25.9,11.0,24.5,17.5,7.7,92,73,53,30.47,30.07,19,4,19,0.13
2013-2-11,44.5,39.2,36.8,38.7,31.8,22.7,89,75,56,30.08,29.60,23,4,23,0.19
2013-2-12,38.3,35.7,33.0,28.8,26.7,24.2,76,69,64,29.98,29.73,17,3,17,0.00
2013-2-13,39.4,33.7,29.2,27.4,24.7,23.2,80,69,57,29.94,29.72,10,0,10,0.00
2013-2-14,42.7,35.0,27.2,34.6,28.4,22.4,87,77,58,29.96,29.79,15,2,15,0.01
2013-2-15,44.4,38.0,29.6,34.3,27.9,20.5,84,67,50,30.05,29.81,19,3,19,0.00
2013-2-16,30.6,26.4,22.9,22.4,17.1,12.7,84,68,57,30.06,29.92,9,1,9,0.00
2013-2-17,23.4,18.2,14.0,15.1,9.9,4.4,87,70,58,30.17,29.89,17,3,17,0.00
2013-2-18,33.4,23.8,14.3,20.6,13.1,7.3,78,64,50,30.32,30.02,17,3,18,0.01
2013-2-19,39.2,35.4,28.3,34.8,27.0,17.1,91,72,54,30.02,29.60,21,5,21,0.04
2013-2-20,28.3,24.2,20.6,18.9,15.0,11.5,89,68,57,30.08,29.79,21,4,21,0.01
2013-2-21,23.0,20.5,16.8,18.6,14.1,9.3,83,76,68,30.44,30.02,17,2,19,0.00
2013-2-22,37.0,30.2,22.5,28.6,23.3,18.6,86,76,62,30.43,30.08,22,4,22,0.01
2013-2-23,40.0,36.9,33.0,36.9,32.5,27.0,92,84,71,30.09,29.87,21,2,21,0.01
2013-2-24,34.7,32.7,31.7,29.2,27.0,24.4,88,79,69,30.05,29.85,14,1,14,0.01
2013-2-25,39.4,34.3,27.8,30.3,27.4,24.5,92,76,62,30.25,30.05,8,1,8,0.00
2013-2-26,43.3,35.1,26.6,33.3,29.1,23.3,93,79,61,30.26,29.89,19,4,19,0.16
2013-2-27,37.1,35.3,32.7,36.0,33.7,31.0,96,94,86,29.89,29.56,12,0,12,0.86
2013-2-28,39.4,35.6,33.1,36.7,33.6,31.9,96,92,85,29.70,29.56,6,0,7,0.35
2013-3-1,34.6,31.9,28.5,32.0,28.4,23.1,92,86,79,29.91,29.69,12,2,12,0.02
2013-3-2,28.9,26.5,25.1,25.6,22.6,20.8,92,85,78,29.93,29.85,11,2,11,0.02
2013-3-3,27.7,25.0,23.3,22.5,20.0,17.6,88,81,72,29.90,29.84,11,2,11,0.01
2013-3-4,32.4,27.9,24.0,23.9,20.6,17.5,81,74,63,30.03,29.89,18,3,18,0.01
2013-3-5,33.6,29.0,24.9,26.2,23.1,20.4,90,78,70,30.11,29.99,10,1,10,0.00
2013-3-6,41.7,34.6,23.8,34.4,28.8,21.8,94,80,63,30.12,29.96,12,1,12,0.00
2013-3-7,41.1,36.1,31.8,30.2,27.3,24.7,79,70,58,30.25,30.12,12,1,12,0.00
2013-3-8,39.4,33.5,29.2,30.0,26.6,23.6,91,77,61,30.39,30.23,15,3,15,0.05
2013-3-9,45.4,34.1,25.9,33.8,28.0,22.9,91,79,49,30.43,30.28,9,1,9,0.00
2013-3-10,55.9,46.3,33.2,33.7,30.3,27.3,83,55,39,30.28,30.05,19,4,19,0.00
2013-3-11,53.9,49.1,46.2,44.0,34.8,29.3,79,58,47,30.07,29.75,23,5,23,0.00
2013-3-12,54.3,43.2,36.8,48.9,39.3,31.5,94,86,78,29.92,29.72,18,1,21,0.30
2013-3-13,42.2,35.6,27.5,32.6,26.4,18.0,89,69,53,29.95,29.81,18,2,18,0.03
2013-3-14,34.9,27.5,20.9,21.1,14.1,9.0,84,58,35,30.06,29.93,24,4,24,0.00
2013-3-15,38.4,32.4,22.9,31.2,23.7,15.6,80,70,58,30.05,29.73,18,2,18,0.01
2013-3-16,32.7,28.5,21.3,24.2,20.3,16.7,83,71,63,30.00,29.83,9,1,11,0.00
2013-3-17,31.5,25.9,19.2,23.9,18.9,14.5,87,75,63,30.36,29.99,11,1,11,0.01
2013-3-18,35.7,27.5,20.5,29.4,20.8,13.4,94,77,49,30.37,29.84,24,6,24,0.00
2013-3-19,45.6,34.5,28.5,36.3,29.2,20.6,92,81,58,29.85,29.67,22,4,24,0.11
2013-3-20,36.2,29.9,24.9,25.9,20.4,15.7,86,68,54,29.86,29.81,13,2,14,0.02
2013-3-21,32.9,27.6,20.9,24.5,17.7,12.9,86,67,46,29.85,29.73,13,2,13,0.00
2013-3-22,34.6,30.8,27.1,27.4,24.3,21.7,86,77,70,29.92,29.73,16,3,16,0.01
2013-3-23,40.2,34.4,31.1,27.1,25.3,23.6,80,70,55,30.00,29.89,17,3,17,0.00
2013-3-24,40.7,34.8,29.7,29.0,25.6,23.2,84,70,53,29.99,29.74,11,2,11,0.00
2013-3-25,41.5,36.1,30.4,32.0,28.5,25.0,85,74,61,29.74,29.57,12,1,12,0.00
2013-3-26,46.7,38.1,32.2,34.3,29.8,25.2,83,72,55,29.93,29.69,10,1,10,0.00
2013-3-27,49.2,38.5,33.3,36.3,31.3,27.6,92,76,48,30.05,29.91,19,2,19,0.06
2013-3-28,44.8,38.9,33.7,36.7,32.8,31.4,99,80,62,30.19,30.03,10,1,11,0.05
2013-3-29,46.8,40.8,34.5,36.5,33.3,30.5,92,75,63,30.20,30.11,11,1,11,0.00
2013-3-30,51.9,39.8,30.0,35.7,30.4,25.5,92,72,36,30.21,30.09,8,1,8,0.01
2013-3-31,55.3,42.3,34.5,42.3,34.9,26.4,95,76,48,30.09,29.66,17,3,25,0.34
2013-4-1,44.6,38.3,27.8,41.8,31.2,19.7,95,77,44,29.96,29.58,21,3,21,0.04
2013-4-2,36.5,30.8,25.6,24.4,18.7,15.4,78,61,45,30.12,29.95,18,4,18,0.00
2013-4-3,37.7,32.1,27.6,21.9,18.9,15.2,76,59,40,30.39,30.10,21,3,21,0.00
2013-4-4,57.1,39.5,24.3,31.5,22.8,18.0,82,54,25,30.38,29.94,17,3,17,0.00
2013-4-5,48.7,40.2,32.0,31.6,25.2,19.3,71,55,43,30.13,29.88,17,3,17,0.00
2013-4-6,45.7,36.7,27.9,29.9,21.0,11.8,74,54,29,30.35,30.11,10,2,12,0.00
2013-4-7,70.3,52.9,43.7,47.0,34.6,23.8,73,51,34,30.11,29.75,26,5,27,0.00
2013-4-8,61.9,49.2,40.3,47.0,38.6,34.5,86,68,47,30.13,29.80,13,1,15,0.00
2013-4-9,68.5,55.6,46.9,51.7,45.6,41.1,94,70,52,30.11,29.78,17,2,17,0.45
2013-4-10,49.8,46.3,41.3,48.7,45.1,40.0,97,96,92,30.01,29.83,11,1,11,0.39
2013-4-11,41.4,38.4,35.4,40.0,35.4,31.2,95,89,76,30.13,29.95,11,2,11,0.03
2013-4-12,47.6,42.7,38.9,45.3,40.1,36.2,95,91,82,29.98,29.60,22,4,22,0.26
2013-4-13,49.3,43.0,38.8,39.6,37.3,33.6,95,81,58,29.95,29.80,16,2,16,0.04
2013-4-14,49.3,41.7,34.9,36.8,32.2,29.0,89,70,48,30.21,29.95,12,1,13,0.00
2013-4-15,70.1,50.2,33.9,49.4,39.8,29.8,88,69,46,30.21,30.08,23,4,23,0.00
2013-4-16,60.9,54.1,46.0,55.5,48.6,39.5,95,82,70,30.22,29.97,21,4,21,0.24
2013-4-17,56.7,46.9,37.5,39.6,36.0,32.6,87,67,46,30.35,30.22,9,1,10,0.00
2013-4-18,64.1,53.7,41.2,53.9,45.1,35.3,87,73,56,30.25,29.84,26,5,26,0.00
2013-4-19,75.1,58.4,42.8,61.8,51.9,38.7,92,80,52,29.85,29.39,28,5,28,0.28
2013-4-20,47.9,41.8,33.3,39.3,30.5,22.5,87,65,44,30.41,29.75,21,3,21,0.00
2013-4-21,45.9,37.4,29.6,29.6,26.0,23.0,82,64,44,30.68,30.41,10,2,10,0.00
2013-4-22,56.2,44.4,30.7,35.1,30.1,25.8,83,59,37,30.63,30.39,15,3,15,0.00
2013-4-23,56.5,47.8,38.2,40.7,35.3,27.2,74,62,47,30.41,30.02,14,4,14,0.00
2013-4-24,69.3,52.9,43.3,55.9,45.5,35.7,89,76,58,30.02,29.64,29,5,29,0.17
2013-4-25,57.1,47.1,35.4,38.7,33.8,28.6,86,61,35,30.31,29.99,22,1,22,0.00
2013-4-26,55.2,45.0,36.0,40.9,36.8,31.6,96,75,44,30.48,30.31,9,1,9,0.06
2013-4-27,68.3,50.5,36.6,42.1,36.0,28.5,89,62,26,30.45,30.24,9,2,9,0.00
2013-4-28,70.8,57.5,44.5,46.8,40.7,37.2,90,56,31,30.25,30.05,19,3,19,0.09
2013-4-29,55.4,51.8,48.0,49.7,46.3,41.1,91,81,68,30.11,30.02,17,4,17,0.02
2013-4-30,62.4,56.4,50.6,53.3,50.2,47.5,90,80,69,30.24,30.09,10,3,16,0.01
2013-5-1,75.5,62.2,50.8,50.0,40.2,32.4,86,48,23,30.38,30.24,13,3,13,0.00
2013-5-2,78.4,63.7,51.3,49.8,41.4,35.1,68,46,27,30.43,30.25,11,2,11,0.00
2013-5-3,74.3,62.7,52.8,47.1,44.5,37.8,73,53,34,30.34,30.21,14,2,14,0.00
2013-5-4,75.0,61.3,48.4,48.0,41.5,35.8,79,50,31,30.30,30.12,11,2,11,0.00
2013-5-5,77.0,62.0,50.4,48.4,43.0,34.0,81,53,24,30.22,30.05,12,2,12,0.00
2013-5-6,75.0,61.2,48.3,49.2,40.6,32.8,69,48,27,30.19,30.01,11,2,11,0.00
2013-5-7,78.8,64.5,52.1,57.7,51.7,47.2,87,66,35,30.12,29.98,8,1,8,0.00
2013-5-8,70.1,61.3,55.7,62.1,56.0,49.8,95,83,68,30.06,29.90,9,0,9,0.12
2013-5-9,69.3,59.4,52.3,59.1,53.7,50.6,95,82,62,29.95,29.87,11,2,11,0.01
2013-5-10,73.5,61.2,52.0,59.0,54.5,49.8,95,80,55,29.97,29.74,22,3,22,0.42
2013-5-11,63.9,58.8,51.4,59.3,54.0,47.0,96,85,68,29.75,29.67,12,1,12,0.10
2013-5-12,56.4,49.5,39.8,48.8,36.8,28.9,94,63,37,29.94,29.69,19,2,19,0.00
2013-5-13,51.2,43.8,37.5,34.2,31.1,28.8,78,61,45,30.13,29.94,7,2,12,0.00
2013-5-14,58.2,46.6,34.1,39.6,34.5,30.0,85,65,39,30.17,30.00,7,0,7,0.00
2013-5-15,84.3,59.1,44.5,60.0,46.9,34.8,84,66,38,30.00,29.52,19,3,21,0.04
2013-5-16,79.3,65.0,50.9,50.2,45.4,40.4,87,54,25,29.96,29.71,18,2,18,0.00
2013-5-17,65.3,54.7,42.0,47.0,42.1,38.1,89,64,41,30.22,29.96,9,1,9,0.00
2013-5-18,68.3,54.9,43.4,52.8,46.0,38.9,89,73,52,30.28,30.15,10,2,10,0.00
2013-5-19,65.4,60.1,56.6,58.1,54.8,51.0,88,83,76,30.19,30.05,21,4,21,0.00
2013-5-20,62.4,61.2,60.2,58.8,57.4,56.5,90,87,86,30.08,30.01,12,3,12,0.00
2013-6-13,62.9,60.4,57.7,60.2,57.8,56.0,95,91,80,29.74,29.49,12,1,12,0.34
2013-6-14,72.0,62.1,53.7,62.2,57.4,52.3,97,85,66,29.95,29.74,6,0,6,0.00
2013-6-15,76.5,64.2,51.8,60.8,54.2,48.0,97,73,37,30.05,29.95,6,0,6,0.00
2013-6-16,75.3,66.2,59.1,66.9,59.5,53.4,89,79,70,29.97,29.70,13,2,13,0.00
2013-6-17,83.2,67.9,58.3,66.3,61.1,56.7,95,81,42,29.93,29.83,13,1,13,0.08
2013-6-18,69.5,62.2,56.4,60.8,56.5,50.4,98,83,57,30.02,29.88,8,0,9,0.01
2013-6-19,69.2,59.3,49.7,51.5,48.4,44.3,92,70,46,30.20,30.01,6,0,6,0.00
2013-6-20,78.6,62.2,47.1,60.7,51.3,44.0,91,69,50,30.26,30.18,9,1,9,0.00
2013-6-21,82.3,68.1,53.7,64.4,57.8,48.5,90,71,48,30.27,30.15,5,0,6,0.00
2013-6-22,88.6,76.4,65.6,68.9,65.1,60.7,87,70,49,30.18,30.00,12,2,12,0.00
2013-6-23,91.5,76.0,71.0,74.2,68.9,66.3,94,80,53,30.08,29.98,15,2,15,0.75
2013-6-24,89.2,75.9,69.8,74.9,68.9,64.0,92,79,56,30.04,29.94,12,2,16,0.00
2013-6-25,85.8,75.9,67.4,72.6,67.7,64.2,93,77,59,29.97,29.78,13,2,13,0.06
2013-6-26,81.2,74.3,67.1,71.8,68.1,65.1,95,81,65,29.83,29.77,8,1,8,0.00
2013-6-27,81.0,72.3,65.9,73.9,67.9,64.4,96,87,69,29.81,29.59,10,1,10,0.20
2013-6-28,71.8,67.2,63.4,68.6,65.7,62.0,97,95,88,29.59,29.47,4,0,4,0.44
2013-6-29,73.8,67.3,63.5,69.7,65.2,62.0,97,93,77,29.70,29.50,12,0,12,0.46
2013-6-30,80.3,70.2,61.1,70.4,65.5,59.9,98,86,64,29.91,29.69,6,0,6,0.00
2013-7-1,70.5,68.3,66.0,68.7,66.2,63.8,97,93,87,30.02,29.90,4,0,4,0.36
2013-7-2,78.7,70.5,63.0,74.7,67.8,62.1,98,91,81,30.10,30.01,11,1,11,0.02
2013-7-3,84.8,75.7,67.3,73.8,70.6,65.9,97,85,67,30.17,30.08,10,1,10,0.00
2013-7-4,84.9,77.9,73.2,76.1,72.7,70.2,95,84,71,30.17,30.09,10,1,10,0.01
2013-7-5,89.4,78.1,71.1,76.0,72.5,69.6,96,84,57,30.15,30.03,11,1,11,0.94
2013-7-6,86.8,76.9,69.1,74.2,70.6,67.0,98,82,56,30.15,30.02,4,0,4,0.01
2013-7-7,88.1,78.4,71.0,76.0,72.8,69.5,97,84,60,30.05,29.91,12,1,12,0.41
2013-7-8,86.0,75.4,67.9,75.0,69.9,66.4,96,84,64,30.06,29.98,8,0,8,0.00
2013-7-9,84.3,75.8,70.1,74.5,71.2,68.0,95,86,66,30.06,29.93,11,1,11,0.07
2013-7-10,87.3,76.7,68.9,75.8,71.8,65.6,96,85,64,29.94,29.70,15,2,15,0.34
2013-7-11,78.5,71.5,65.8,68.2,64.4,60.8,96,79,62,30.02,29.81,6,0,6,0.01
2013-7-12,80.0,69.8,63.6,68.1,63.8,61.3,96,82,57,30.17,30.02,5,0,6,0.00
2013-7-13,79.3,72.0,64.5,72.3,67.3,61.7,95,85,73,30.26,30.15,11,1,11,0.00
2013-7-14,90.3,79.2,69.4,77.7,72.7,67.6,95,81,61,30.32,30.22,8,1,8,0.00
2013-7-15,90.3,80.3,70.7,78.0,73.5,66.7,95,81,61,30.29,30.20,4,0,4,0.00
2013-7-16,91.8,78.7,67.7,76.0,70.7,65.6,94,78,54,30.28,30.19,6,0,6,0.00
2013-7-17,93.8,80.4,70.0,79.9,73.6,68.2,94,81,56,30.24,30.06,8,1,8,0.00
2013-7-18,91.8,81.2,74.7,79.9,75.3,71.8,93,83,64,30.09,30.02,14,1,14,0.00
2013-7-20,79.0,73.4,65.9,71.4,67.9,62.9,95,83,72,29.89,29.71,13,0,13,0.14
2013-7-21,80.1,72.0,63.9,68.4,64.4,61.1,95,78,56,30.01,29.89,5,0,5,0.00
2013-7-22,82.4,72.8,65.5,73.0,68.5,62.6,96,87,72,30.01,29.79,10,1,10,0.21
2013-7-23,82.7,74.0,68.5,71.6,68.9,66.8,97,85,62,29.79,29.60,7,0,7,0.35
2013-7-24,72.1,63.8,53.0,67.7,56.3,50.5,91,77,64,30.06,29.66,5,1,9,0.02
2013-7-25,75.5,63.0,50.0,58.8,54.1,48.5,97,75,51,30.13,30.06,5,1,7,0.00
2013-7-26,79.8,65.9,53.1,65.7,57.8,50.7,94,77,48,30.12,30.02,6,0,6,0.00
2013-7-27,80.4,70.8,61.0,70.4,64.4,57.7,95,81,67,30.03,29.86,15,2,15,0.32
2013-7-28,75.4,69.0,60.9,68.7,65.6,59.2,95,89,72,30.00,29.84,12,2,13,0.14
2013-7-29,72.8,64.9,58.4,61.6,58.9,56.0,95,82,57,30.15,30.00,11,1,11,0.01
2013-7-30,76.1,66.8,57.9,64.4,59.8,55.6,93,79,60,30.22,30.14,8,0,8,0.00
2013-7-31,79.1,68.7,58.2,66.1,61.3,56.7,96,79,55,30.17,29.96,8,1,10,0.00
2013-8-1,80.9,70.0,62.0,69.8,65.2,59.8,93,85,66,29.96,29.76,13,2,14,0.10
2013-8-2,76.5,66.3,58.7,65.1,61.6,57.2,96,86,62,29.92,29.85,8,1,8,0.05
2013-8-4,73.8,66.9,58.7,61.9,56.6,52.3,86,70,56,30.04,29.94,10,1,10,0.00
2013-8-5,75.5,64.2,52.1,60.3,55.2,50.0,95,74,48,30.12,30.03,6,0,6,0.00
2013-8-6,77.3,67.6,57.0,64.7,59.2,53.7,91,76,49,30.08,30.02,14,2,14,0.00
2013-8-7,75.5,70.0,64.5,68.2,64.8,59.4,89,84,77,30.06,29.93,15,3,15,0.00
2013-8-8,82.5,73.2,67.4,72.7,68.3,65.0,95,85,70,29.98,29.89,12,2,12,1.01
2013-8-11,77.3,68.9,56.4,62.5,59.0,54.1,92,72,54,30.15,30.05,7,1,7,0.00
2013-8-12,77.3,68.3,58.6,68.6,62.0,56.6,94,81,60,30.07,29.89,8,1,8,0.00
2013-8-13,76.3,67.4,58.2,68.2,62.4,51.0,96,84,68,29.89,29.73,8,1,8,0.55
2013-8-14,69.0,60.8,52.3,58.0,52.5,48.2,89,75,56,30.08,29.85,11,1,11,0.00
2013-8-15,75.7,63.7,52.8,59.7,54.3,49.3,90,73,50,30.16,30.07,10,1,10,0.00
2013-8-16,77.8,65.1,55.9,60.7,56.1,52.7,92,74,47,30.22,30.13,7,0,7,0.00
2013-8-17,81.3,65.8,54.1,65.5,58.3,51.8,93,78,53,30.32,30.22,10,1,10,0.00
2013-8-18,76.9,67.7,60.1,65.5,61.5,57.0,92,81,59,30.27,30.12,9,1,9,0.00
2013-8-19,77.7,67.9,62.1,66.7,62.8,59.6,93,84,60,30.13,30.04,9,1,9,0.00
2013-9-2,80.8,72.9,67.2,74.1,69.6,65.4,97,89,80,29.79,29.69,10,2,10,0.93
2013-9-3,69.1,63.6,59.7,60.4,59.0,57.4,94,85,72,29.88,29.81,7,0,7,0.00
2013-9-4,80.1,72.6,56.2,62.2,59.5,53.9,92,64,49,30.01,29.94,9,1,9,0.00
2013-9-5,70.3,62.6,52.2,62.4,52.4,43.6,89,70,54,30.22,29.95,9,1,9,0.00
2013-9-6,70.1,57.2,46.5,54.3,48.2,43.7,94,74,46,30.31,30.13,9,1,9,0.00
2013-9-7,70.4,62.6,53.5,61.4,55.6,49.1,88,78,64,30.13,29.88,12,1,12,0.00
2013-9-8,66.3,61.2,48.6,63.1,53.8,45.5,96,78,52,30.14,29.84,8,1,8,0.17
2013-9-9,74.5,61.4,47.7,61.5,53.3,45.5,94,76,56,30.21,30.02,14,3,14,0.00
2013-9-10,88.8,75.5,68.1,76.9,69.1,59.7,92,81,68,30.06,29.94,14,3,14,0.06
2013-9-11,94.0,79.5,70.7,77.2,72.6,68.8,95,81,51,30.06,29.92,19,3,19,0.18
2013-9-12,75.0,69.3,63.2,70.5,66.9,60.5,96,92,82,29.93,29.73,9,1,15,0.56
2013-9-13,63.3,57.6,51.9,60.5,54.7,49.7,95,90,85,30.00,29.73,10,1,10,0.07
2013-9-14,60.8,52.7,45.7,50.0,47.6,43.4,94,83,62,30.16,29.99,7,0,7,0.02
2013-9-15,67.0,56.5,45.8,56.4,50.8,43.5,95,82,59,30.20,30.07,14,2,14,0.01
2013-9-16,60.3,54.0,45.8,55.5,50.3,42.4,96,88,76,30.39,30.09,10,1,10,0.05
2013-9-17,64.8,50.6,38.8,51.1,44.0,37.0,97,80,55,30.51,30.34,8,1,8,0.00
2013-9-18,71.5,58.7,47.7,56.3,50.3,45.3,98,75,51,30.34,30.13,13,2,13,0.01
2013-9-19,74.5,62.4,52.3,61.0,53.9,49.5,91,75,49,30.16,30.03,13,2,13,0.00
2013-9-20,79.0,67.0,57.8,65.6,59.8,55.2,93,79,59,30.05,29.85,14,3,14,0.00
2013-9-21,71.3,64.2,56.5,63.6,60.2,54.8,96,87,76,29.85,29.62,21,3,21,0.96
2013-9-22,57.6,53.3,50.9,54.9,47.8,42.7,95,82,67,30.02,29.72,9,1,11,0.01
2013-9-23,59.4,51.9,45.0,47.7,44.7,41.9,92,77,62,30.15,30.02,7,1,7,0.00
2013-9-24,65.6,52.2,40.8,52.2,46.1,39.5,96,81,54,30.15,30.01,5,0,5,0.00
2013-9-25,70.0,54.0,43.1,57.9,48.5,41.7,95,83,59,30.03,29.94,8,1,8,0.01
2013-9-26,70.5,56.2,45.5,57.8,50.7,43.5,96,83,61,30.15,30.01,7,1,7,0.00
2013-9-27,70.9,56.7,46.9,58.9,52.4,45.4,96,86,59,30.28,30.14,7,0,7,0.00
2013-9-28,70.6,58.8,49.0,59.8,53.6,47.5,96,84,65,30.34,30.21,9,1,9,0.01
2013-9-29,71.8,61.4,51.8,57.8,53.3,49.4,92,76,52,30.22,30.03,17,2,17,0.00
2013-9-30,74.6,62.1,54.5,61.6,55.5,51.6,91,80,55,30.06,29.94,8,2,11,0.00
2013-10-1,74.9,62.9,56.5,63.6,57.4,53.9,93,83,58,30.04,29.93,7,1,7,0.00
2013-10-2,79.1,65.6,56.6,66.2,58.5,54.0,93,79,54,30.08,29.94,11,1,11,0.00
2013-10-3,72.0,60.4,51.2,57.9,53.5,49.3,96,80,46,30.16,30.03,8,1,8,0.01
2013-10-4,75.0,65.6,61.2,68.8,63.0,57.2,96,91,81,30.06,29.97,7,0,7,0.16
2013-10-5,67.2,63.8,61.9,63.3,61.6,60.6,96,93,86,30.11,30.04,7,0,7,0.05
2013-10-6,82.2,68.8,61.8,71.1,65.0,60.8,100,88,62,30.04,29.82,17,2,17,0.05
2013-10-7,70.3,62.3,50.2,65.6,57.2,44.8,95,84,61,30.04,29.63,20,2,20,1.11
2013-10-8,65.7,53.6,45.4,51.2,46.7,43.3,95,79,51,30.39,30.04,7,0,7,0.00
2013-10-9,66.6,53.2,44.1,51.7,46.3,42.5,95,79,46,30.45,30.31,13,1,13,0.01
2013-10-10,64.7,53.5,44.6,52.9,47.2,42.0,93,80,61,30.33,30.18,9,1,9,0.00
2013-10-11,63.6,55.6,48.0,56.3,51.3,45.8,95,86,64,30.18,30.11,4,0,5,0.04
2013-10-12,73.7,57.0,45.6,54.0,46.9,40.7,98,73,34,30.24,30.14,9,1,9,0.01
2013-10-13,69.8,63.1,58.1,58.8,55.0,52.3,86,75,65,30.32,30.24,17,2,17,0.00
2013-10-14,64.1,57.3,54.7,55.5,54.4,52.7,96,90,70,30.34,30.28,11,1,11,0.47
2013-10-15,67.8,59.4,54.4,59.6,55.8,53.3,96,88,70,30.30,30.01,9,1,11,0.00
2013-10-16,62.6,61.0,59.0,57.3,53.7,47.4,91,77,66,30.02,29.81,15,3,15,0.02
2013-10-17,66.1,58.2,50.7,57.1,52.2,48.2,96,82,57,29.90,29.66,6,1,10,0.71
2013-10-18,60.4,53.4,43.9,52.6,46.6,40.7,96,79,56,29.95,29.71,14,1,14,0.02
2013-10-19,62.6,55.6,44.5,50.7,45.8,40.6,90,70,52,29.94,29.68,22,3,22,0.03
2013-10-20,54.1,48.0,42.3,45.5,41.7,38.1,87,79,64,30.02,29.77,12,1,12,0.00
2013-10-21,66.7,57.3,47.6,46.4,42.4,39.1,87,60,38,30.04,29.83,19,4,19,0.00
2013-10-22,57.5,49.3,39.2,48.2,40.0,32.6,91,72,49,29.87,29.76,12,1,12,0.01
2013-10-23,51.1,43.4,37.4,41.1,36.6,32.6,89,77,55,29.85,29.68,9,0,9,0.01
2013-10-24,51.2,42.6,34.2,36.9,33.9,30.3,90,73,48,30.02,29.81,17,3,17,0.01
2013-10-25,51.4,43.5,38.4,41.3,36.9,34.7,88,78,58,30.20,30.01,10,1,10,0.01
2013-10-26,49.1,44.9,41.5,36.1,32.0,28.7,78,61,48,30.17,29.83,21,3,21,0.00
2013-10-27,51.2,44.5,36.8,39.7,35.6,31.8,85,71,54,30.10,29.84,14,1,14,0.00
2013-10-28,53.5,45.0,34.7,42.4,35.3,29.2,83,69,56,30.41,30.08,12,1,12,0.00
2013-10-29,47.6,39.0,29.9,35.1,30.5,26.6,90,72,49,30.50,30.33,6,1,6,0.00
2013-10-30,58.2,45.9,40.4,45.8,39.5,33.4,92,79,53,30.33,30.15,7,0,7,0.01
2013-10-31,62.8,55.2,44.3,58.0,52.1,40.6,94,89,84,30.15,29.51,12,4,19,0.24
2013-11-1,67.8,61.1,51.4,59.6,50.4,41.8,90,69,43,29.68,29.26,23,4,23,0.17
2013-11-2,56.7,48.9,40.2,47.5,44.5,36.3,94,85,65,29.96,29.64,13,1,13,0.14
2013-11-3,40.4,36.2,28.8,36.5,28.6,21.7,86,74,59,30.56,29.96,11,2,11,0.02
2013-11-4,43.9,35.6,25.1,28.8,23.4,20.0,85,63,40,30.70,30.53,19,2,19,0.00
2013-11-5,54.6,46.8,38.7,42.3,33.1,23.8,75,59,45,30.57,30.38,18,4,18,0.00
2013-11-6,61.1,54.6,48.1,51.4,47.2,41.2,87,76,62,30.40,29.86,23,4,23,0.00
2013-11-7,59.9,46.8,36.2,52.9,40.7,31.5,98,79,66,30.00,29.79,12,1,12,0.38
2013-11-8,42.4,38.7,34.2,35.2,30.7,27.4,89,73,57,30.24,29.97,16,2,16,0.03
2013-11-9,48.3,43.5,35.8,36.2,31.6,27.1,78,63,48,30.25,29.83,16,3,16,0.00
2013-11-10,50.4,46.9,42.1,42.3,35.6,30.1,78,65,52,30.15,29.80,20,3,20,0.00
2013-11-11,47.2,41.1,32.7,37.1,32.2,27.8,88,71,55,30.19,29.95,15,2,15,0.01
2013-11-12,34.2,30.3,26.7,29.1,23.1,19.2,87,75,57,30.40,30.10,15,3,15,0.00
2013-11-13,39.4,30.9,22.5,24.0,21.0,16.1,87,67,51,30.47,30.17,13,2,13,0.00
2013-11-14,54.5,42.3,29.7,28.0,19.7,16.1,61,41,24,30.18,30.07,7,2,12,0.00
2013-11-15,56.7,47.1,39.4,37.0,28.4,19.6,67,49,30,30.17,30.07,11,2,11,0.00
2013-11-16,58.5,50.4,40.7,44.7,38.7,29.5,78,64,49,30.29,30.13,12,2,12,0.00
2013-11-17,58.4,53.9,50.2,54.5,49.9,43.1,92,86,76,30.13,29.44,23,5,23,0.02
2013-11-18,58.9,51.0,38.5,56.5,38.0,26.0,93,62,41,29.91,29.42,24,5,24,0.04
2013-11-19,38.9,36.1,32.8,32.1,28.0,24.5,89,72,60,30.45,29.90,19,3,19,0.02
2013-11-20,41.1,31.8,23.2,26.6,22.4,18.1,82,69,47,30.64,30.45,11,1,11,0.00
2013-11-21,46.7,40.3,33.8,38.5,28.2,17.4,87,62,49,30.55,30.31,19,4,19,0.01
2013-11-22,49.1,44.3,36.6,47.0,41.8,30.0,95,91,76,30.31,29.97,17,2,17,0.05
2013-11-23,39.5,31.1,20.7,30.0,23.2,11.9,84,72,54,30.18,29.98,22,4,22,0.00
2013-11-24,25.4,20.7,17.6,17.5,14.0,10.4,87,75,58,30.43,30.15,19,4,19,0.00
2013-11-25,35.8,28.5,19.9,21.8,15.8,13.2,83,60,43,30.45,30.18,19,4,19,0.00
2013-11-26,37.7,34.5,32.3,36.4,29.9,14.7,95,84,44,30.21,29.80,12,4,18,0.01
2013-11-27,36.9,32.7,24.7,35.9,29.5,19.0,96,88,73,29.88,29.58,20,3,20,0.00
2013-11-28,29.5,25.2,21.0,22.8,17.9,14.4,91,74,57,30.46,29.87,20,3,20,0.00
2013-11-29,31.1,24.4,14.8,23.1,18.4,9.9,92,78,54,30.78,30.46,11,1,11,0.02
2013-11-30,34.8,26.6,16.4,23.6,18.4,13.1,92,73,48,30.78,30.28,22,5,22,0.00
2013-12-1,41.2,36.1,33.0,34.3,29.5,23.2,93,77,66,30.28,30.00,15,3,15,0.04
2013-12-2,41.9,38.7,36.0,36.2,34.9,33.2,93,86,80,30.00,29.87,9,2,9,0.00
2013-12-3,42.2,35.1,28.7,33.8,30.5,26.1,92,84,65,30.04,29.91,5,1,6,0.00
2013-12-4,50.6,41.9,32.1,43.5,37.9,29.8,94,86,74,30.09,29.98,13,2,13,0.01
2013-12-5,55.4,50.8,44.0,51.6,47.1,42.5,95,87,81,30.00,29.81,11,4,21,0.09
2013-12-6,44.1,36.2,30.6,42.7,32.2,27.3,95,85,70,30.27,29.97,8,1,8,0.25
2013-12-7,34.2,30.2,25.3,28.3,20.9,14.3,89,69,55,30.57,30.24,14,2,14,0.00
2013-12-8,30.9,26.6,21.4,26.0,18.0,14.2,89,70,60,30.62,30.29,18,3,18,0.00
2013-12-9,42.3,36.2,28.8,37.4,30.9,24.7,91,81,66,30.30,29.89,22,4,22,0.00
2013-12-10,34.1,28.1,20.0,25.0,20.2,13.2,92,72,62,30.10,29.93,22,2,22,0.00
2013-12-11,28.5,23.7,17.7,25.3,18.8,9.7,92,82,67,30.30,30.10,11,1,11,0.00
2013-12-12,24.0,19.3,12.2,13.1,9.9,6.5,82,67,52,30.36,30.09,14,3,14,0.00
2013-12-13,28.6,21.4,17.9,22.1,16.5,11.1,92,81,65,30.42,30.06,16,2,16,0.00
2013-12-14,26.0,20.0,13.1,25.2,17.1,9.8,100,88,74,30.48,29.81,26,5,26,0.00
2013-12-15,31.6,26.4,23.7,26.3,22.6,13.9,94,85,66,29.87,29.63,22,2,23,0.01
2013-12-16,25.3,18.6,10.0,15.0,11.8,5.9,89,75,60,30.23,29.87,15,2,16,0.00
2013-12-17,29.5,22.4,12.7,24.8,19.0,10.2,100,87,80,30.21,29.96,20,4,20,0.00
2013-12-18,33.2,29.5,25.1,28.2,24.7,21.2,92,82,70,30.11,29.96,11,1,11,0.01
2013-12-19,45.8,36.4,29.5,33.6,27.0,20.9,84,69,53,30.10,29.97,15,3,15,0.00
2013-12-20,49.7,45.5,38.0,46.8,39.0,32.8,92,78,60,30.03,29.82,13,3,13,0.03
2013-12-21,60.3,48.3,34.5,53.8,45.6,33.2,96,90,77,29.88,29.78,18,2,18,0.69
2013-12-22,66.2,41.9,33.8,57.4,39.1,32.5,98,90,56,29.99,29.57,30,2,30,0.07
2013-12-23,43.5,38.9,31.1,40.8,34.3,22.7,95,84,65,30.26,29.98,15,1,15,0.04
2013-12-24,31.1,24.1,14.6,25.7,18.9,8.5,90,80,72,30.50,30.20,11,2,11,0.00
2013-12-25,26.2,18.3,10.4,16.3,11.2,6.5,89,74,62,30.58,30.30,16,3,16,0.00
2013-12-26,37.1,29.5,24.6,27.7,22.7,15.7,90,76,64,30.30,30.10,17,3,17,0.01
2013-12-27,35.8,30.3,24.2,29.2,24.0,18.2,85,77,70,30.32,30.17,12,1,12,0.00
2013-12-28,50.2,40.5,33.7,37.7,31.6,28.3,84,71,53,30.17,29.99,13,2,13,0.00
2013-12-29,44.7,39.9,35.8,39.2,34.6,31.3,96,82,60,29.99,29.66,12,2,12,0.29
2013-12-30,38.6,23.2,16.2,35.3,17.3,9.6,90,78,68,30.26,29.73,16,2,16,0.00
2013-12-31,29.9,20.8,17.3,20.3,12.9,8.7,87,72,56,30.30,30.00,16,3,20,0.00
2014-1-1,23.8,20.3,16.8,16.4,12.0,8.1,87,70,55,30.44,30.29,11,1,11,0.00
2014-1-2,19.1,13.7,4.6,15.2,10.3,1.3,88,86,83,30.31,29.96,12,2,12,0.00